Bellingham, WA

10:11 AM PDT on June 26, 2017 (GMT -0700)
Bellingham International

Weather History for KBLI - April, 2013

Change the Weather History Date:

Tuesday, April 30, 2013

  Actual Average Record
Temperature  
Mean Temperature 45 °F 51 °F  
Max Temperature 53 °F 59 °F 76 °F (1989)
Min Temperature 37 °F 42 °F 29 °F (1954)
Degree Days  
Heating Degree Days 20 14  
Month to date heating degree days 491 496  
Cooling Degree Days 0 0  
Month to date cooling degree days 0 0  
Year to date cooling degree days 0 0  
Moisture  
Dew Point 33 °F    
Average Humidity 59    
Maximum Humidity 76    
Minimum Humidity 41    
Precipitation  
Precipitation T in 0.08 in 0.87 in (1987)
Month to date precipitation 4.19 2.69  
Year to date precipitation 10.67 13.60  
Sea Level Pressure  
Sea Level Pressure 30.30 in    
Wind  
Wind Speed 3 mph (SW)    
Max Wind Speed 10 mph    
Max Gust Speed 14 mph    
Visibility 10 miles    
Events      
T = Trace of Precipitation, MM = Missing Value Source: NWS Daily Summary

Daily Weather History Graph

Daily Weather History Graph

Search for Another Location

Airport or City:

Trip Planner

Search our weather history database for the weather conditions in past years. The results will help you decide how hot, cold, wet, or windy it might be!

Date:

Astronomy

Apr. 30, 2013 Rise Set
Actual Time 5:50 AM PDT 8:24 PM PDT
Civil Twilight 5:15 AM PDT 9:00 PM PDT
Nautical Twilight 4:31 AM PDT 9:45 PM PDT
Astronomical Twilight 3:38 AM PDT 10:37 PM PDT
Moon 12:57 AM PDT (4/30) 10:21 AM PDT (4/30)
Length of Visible Light 15h 44m
Length of Day
14h 33m
Waning Gibbous, 69% of the Moon is Illuminated
Apr 30
Waning Gibbous
May 2
Last Quarter
May 9
New
May 17
First Quarter
May 24
Full

Hourly Weather History & Observations

Time (PDT) Temp. Windchill Dew Point Humidity Pressure Visibility Wind Dir Wind Speed Gust Speed Precip Events Conditions
12:53 AM 45.0 °F - 36.0 °F 71% 30.17 in 10.0 mi Calm Calm - N/A   Overcast
1:53 AM 44.1 °F - 32.0 °F 63% 30.17 in 10.0 mi Calm Calm - 0.00 in   Overcast
2:53 AM 45.0 °F - 34.0 °F 65% 30.18 in 10.0 mi Calm Calm - N/A   Overcast
3:15 AM 44.6 °F 42.2 °F 33.8 °F 66% 30.16 in 10.0 mi South 4.6 mph - N/A   Overcast
3:53 AM 44.1 °F 42.5 °F 35.1 °F 71% 30.19 in 10.0 mi Variable 3.5 mph - N/A   Overcast
4:33 AM 44.6 °F 43.1 °F 33.8 °F 66% 30.17 in 10.0 mi WSW 3.5 mph - N/A   Overcast
4:53 AM 44.1 °F - 34.0 °F 68% 30.20 in 10.0 mi Calm Calm - N/A   Overcast
5:53 AM 44.1 °F - 33.1 °F 65% 30.22 in 10.0 mi Calm Calm - N/A   Overcast
6:53 AM 44.1 °F - 32.0 °F 63% 30.24 in 10.0 mi Calm Calm - N/A   Overcast
7:53 AM 44.1 °F 40.8 °F 32.0 °F 63% 30.26 in 10.0 mi Variable 5.8 mph - N/A   Mostly Cloudy
8:38 AM 46.4 °F 42.9 °F 33.8 °F 62% 30.24 in 10.0 mi Variable 6.9 mph - 0.00 in   Overcast
8:53 AM 45.0 °F 43.5 °F 33.1 °F 63% 30.28 in 10.0 mi Variable 3.5 mph - 0.00 in   Overcast
9:15 AM 44.6 °F 40.7 °F 33.8 °F 66% 30.26 in 10.0 mi West 6.9 mph - N/A   Overcast
9:53 AM 46.0 °F 43.9 °F 34.0 °F 63% 30.30 in 10.0 mi Variable 4.6 mph - N/A   Mostly Cloudy
10:53 AM 46.9 °F - 30.9 °F 54% 30.31 in 10.0 mi WNW 8.1 mph - N/A   Mostly Cloudy
11:53 AM 48.0 °F - 33.1 °F 56% 30.34 in 10.0 mi Variable 4.6 mph - N/A   Mostly Cloudy
12:53 PM 48.0 °F - 34.0 °F 58% 30.35 in 10.0 mi Variable 4.6 mph - N/A   Mostly Cloudy
1:53 PM 48.9 °F - 33.1 °F 54% 30.35 in 10.0 mi West 4.6 mph - N/A   Overcast
2:53 PM 51.1 °F - 33.1 °F 50% 30.38 in 10.0 mi Calm Calm - N/A   Scattered Clouds
3:53 PM 52.0 °F - 32.0 °F 47% 30.38 in 10.0 mi South 9.2 mph - N/A   Clear
4:53 PM 52.0 °F - 33.1 °F 49% 30.38 in 10.0 mi Variable 5.8 mph - N/A   Clear
5:53 PM 52.0 °F - 30.0 °F 43% 30.40 in 10.0 mi Variable 4.6 mph - N/A   Clear
6:53 PM 51.1 °F - 28.9 °F 43% 30.40 in 10.0 mi Calm Calm - N/A   Clear
7:53 PM 46.9 °F - 36.0 °F 66% 30.40 in 10.0 mi Calm Calm - N/A   Clear
8:53 PM 44.1 °F 42.5 °F 36.0 °F 73% 30.42 in 10.0 mi South 3.5 mph - N/A   Clear
9:53 PM 43.0 °F 41.3 °F 36.0 °F 76% 30.44 in 10.0 mi South 3.5 mph - N/A   Clear
10:53 PM 45.0 °F 41.8 °F 36.0 °F 71% 30.45 in 10.0 mi SSE 5.8 mph - N/A   Clear
11:53 PM 43.0 °F - 34.0 °F 71% 30.46 in 10.0 mi Calm Calm - N/A   Clear